map of BNE home
BNE - Airport
Location
City:  Brisbane, Queensland, Australia
Name:Brisbane International Airport
ICAO:YBBN
IATA:BNE

Details
Type:Airport (Aerodrome, Airfield)
Use:Public/Civil, International (customs port of entry)
Latitude:2723'03"S (-27.384166)
Longitude:15307'03"E (153.117500)
Datum:WGS 1984
Elevation:13 ft (4 m)
Variation:10.98E (WMM2015 magnetic declination)
0.00 annual change
Runways:2
Longest:11680 × 148 ft (3560 × 45 m), paved

Time
Time Zone:UTC+10
Local Time:

Weather
METAR:YBBN 251100Z 06008KT 9999 FEW020 BKN024 BKN028 25/20 Q1016 NOSIG
TAF:YBBN 250517Z 2506/2612 11013KT 9999 SCT025
FM251000 VRB05KT 9999 SCT025
FM252300 18008KT 9999 SCT030
FM260200 04010KT 9999 SCT030
FM261000 VRB05KT 9999 SCT025

Related Locations
Nearby:
Farthest:VDE: 11894 mi / 19141 km
Valverde [El Hierro], El Hierro Island, CN, ES

Find:

   beyond  
but within

Other Information
Maps:
NOTAMs:
Links:
Sources:

  
flag of Australia
flag of Queensland
flag of Brisbane
  

Sectional Chart

Flight Planning
at skyvector.com

Satellite Image

Google Maps Satellite view

 

Copyright © 2004-2017 Karl L. Swartz. All rights reserved.
The Great Circle Mapper name and logo are trademarks of the Great Circle Mapper.
All other trademarks mentioned herein belong to their respective owners.
Please see credits for attibutions and further copyright information.

  Follow gcmap on Facebook Follow gcmap on Twitter Follow gcmap on Google+ GCmap on LinkedIn

hCard Microformat

Geo Microformat